EW5390 Weather Reports


Display with metric or nautical units.
time (UTC)temp
F
wind
direction
speed
MPH
gust
MPH
rain 1hr
in
rain 24hr
in
rain mn
in
humidity
%
barometer
mb
20260509121055 60 20 0.0 3.0 0.00 0.00 0.00 85 1012.4
20260509120554 59 152 0.0 3.0 0.00 0.00 0.00 85 1012.5
20260509120112 59 134 1.0 3.0 0.00 0.00 0.00 85 1012.5
20260509115553 59 150 1.0 3.0 0.00 0.00 0.00 85 1012.5
20260509115053 59 165 0.0 2.0 0.00 0.00 0.00 85 1012.5
20260509114603 59 45 1.0 3.0 0.00 0.00 0.00 85 1012.6
20260509114054 58 236 1.0 3.0 0.00 0.00 0.00 85 1012.5
20260509113555 58 241 1.0 3.0 0.00 0.00 0.00 85 1012.6
20260509113115 58 210 1.0 3.0 0.00 0.00 0.00 86 1012.7
20260509112553 58 146 0.0 3.0 0.00 0.00 0.00 86 1012.6
20260509112053 58 136 0.0 3.0 0.00 0.00 0.00 86 1012.6
20260509111605 58 0 1.0 3.0 0.00 0.00 0.00 86 1012.6
20260509111053 57 153 1.0 3.0 0.00 0.00 0.00 86 1012.7
20260509110552 57 0 1.0 3.0 0.00 0.00 0.00 87 1012.9
20260509110100 57 159 0.0 3.0 0.00 0.00 0.00 87 1012.8
20260509105553 57 165 1.0 3.0 0.00 0.00 0.00 87 1012.8
20260509105055 57 150 0.0 3.0 0.00 0.00 0.00 87 1012.8
20260509104554 57 151 1.0 3.0 0.00 0.00 0.00 87 1012.8
20260509104053 57 181 1.0 3.0 0.00 0.00 0.00 87 1012.8
20260509103553 57 160 0.0 2.0 0.00 0.00 0.00 87 1012.6
20260509103103 57 152 0.0 2.0 0.00 0.00 0.00 87 1012.6
20260509102554 57 147 0.0 3.0 0.00 0.00 0.00 87 1012.6
20260509102055 57 155 0.0 3.0 0.00 0.00 0.00 87 1012.6
20260509101622 57 141 1.0 3.0 0.00 0.00 0.00 87 1012.5
20260509101054 57 193 1.0 3.0 0.00 0.00 0.00 87 1012.7
20260509100554 57 140 1.0 2.0 0.00 0.00 0.00 87 1012.7
20260509100057 57 153 0.0 2.0 0.00 0.00 0.00 87 1012.5
20260509095552 57 136 0.0 2.0 0.00 0.00 0.00 87 1012.4
20260509095052 57 157 1.0 2.0 0.00 0.00 0.00 87 1012.3
20260509094559 57 147 0.0 2.0 0.00 0.00 0.00 87 1012.3
20260509094050 57 148 0.0 2.0 0.00 0.00 0.00 87 1012.3
20260509093555 57 0 0.0 3.0 0.00 0.00 0.00 87 1012.2
20260509093104 57 166 1.0 3.0 0.00 0.00 0.00 87 1012.3
20260509092554 57 174 1.0 3.0 0.00 0.00 0.00 87 1012.3
20260509092054 56 151 0.0 2.0 0.00 0.00 0.00 87 1012.3
20260509091557 56 156 1.0 2.0 0.00 0.00 0.00 87 1012.4
20260509091054 56 154 1.0 2.0 0.00 0.00 0.00 87 1012.3
20260509090554 56 134 1.0 2.0 0.00 0.00 0.00 87 1012.2
20260509085551 56 159 0.0 3.0 0.00 0.00 0.00 86 1012.2
20260509085056 56 0 1.0 3.0 0.00 0.00 0.00 86 1012.4
20260509084556 56 147 0.0 1.0 0.00 0.00 0.00 85 1012.5
20260509084054 56 174 0.0 1.0 0.00 0.00 0.00 85 1012.7
20260509083551 56 0 0.0 1.0 0.00 0.00 0.00 85 1012.5
20260509083054 56 0 0.0 2.0 0.00 0.00 0.00 84 1012.6
20260509082554 56 150 0.0 2.0 0.00 0.00 0.00 84 1012.5
20260509082054 56 94 0.0 2.0 0.00 0.00 0.00 84 1012.4
20260509081606 56 107 1.0 2.0 0.00 0.00 0.00 83 1012.5
20260509081055 56 224 0.0 3.0 0.00 0.00 0.00 83 1012.5
20260509080556 56 158 1.0 3.0 0.00 0.00 0.00 83 1012.5
20260509080054 56 181 1.0 3.0 0.00 0.00 0.00 82 1012.5
20260509075554 56 151 1.0 4.0 0.00 0.00 0.00 82 1012.5
20260509075056 56 150 0.0 4.0 0.00 0.00 0.00 82 1012.5
20260509074557 56 177 1.0 4.0 0.00 0.00 0.00 82 1012.6
20260509074056 56 160 1.0 3.0 0.00 0.00 0.00 82 1012.8
20260509073557 56 0 0.0 3.0 0.00 0.00 0.00 81 1012.8
20260509073105 56 175 1.0 3.0 0.00 0.00 0.00 81 1012.8
20260509072555 56 117 0.0 3.0 0.00 0.00 0.00 81 1012.7
20260509072057 56 163 1.0 3.0 0.00 0.00 0.00 80 1012.6
20260509071559 56 171 1.0 3.0 0.00 0.00 0.00 80 1012.8
20260509071054 56 155 1.0 3.0 0.00 0.00 0.00 80 1012.8
20260509070554 55 131 1.0 2.0 0.00 0.00 0.00 80 1012.9
20260509070058 55 158 0.0 2.0 0.00 0.00 0.00 80 1012.8
20260509065552 55 0 0.0 2.0 0.00 0.00 0.00 80 1012.9
20260509065054 55 164 0.0 2.0 0.00 0.00 0.00 80 1012.8
20260509064613 55 273 1.0 2.0 0.00 0.00 0.00 80 1012.9
20260509064051 55 149 0.0 2.0 0.00 0.00 0.00 80 1012.8
20260509063552 55 169 0.0 2.0 0.00 0.00 0.00 79 1012.8
20260509063052 55 162 0.0 2.0 0.00 0.00 0.00 79 1012.9
20260509062554 54 155 0.0 2.0 0.00 0.00 0.00 78 1012.9
20260509062051 54 125 0.0 2.0 0.00 0.00 0.00 78 1013.0
20260509061553 54 163 0.0 2.0 0.00 0.00 0.00 78 1013.0
20260509061053 54 153 0.0 2.0 0.00 0.00 0.00 78 1013.0
20260509060552 54 160 0.0 1.0 0.00 0.00 0.00 78 1013.0
20260509060056 55 160 0.0 1.0 0.00 0.00 0.00 77 1013.1
20260509055552 55 0 0.0 2.0 0.00 0.00 0.00 77 1013.2
20260509055057 54 162 0.0 2.0 0.00 0.00 0.00 77 1013.2
20260509054602 55 0 0.0 2.0 0.00 0.00 0.00 77 1013.2
20260509054054 55 158 0.0 2.0 0.00 0.00 0.00 76 1013.2
20260509053552 55 152 0.0 2.0 0.00 0.00 0.00 76 1013.2
20260509053107 55 0 0.0 2.0 0.00 0.00 0.00 76 1013.3
20260509052553 55 215 0.0 2.0 0.00 0.00 0.00 75 1013.4
20260509052055 55 165 0.0 3.0 0.00 0.00 0.00 75 1013.3
20260509051606 55 179 0.0 3.0 0.00 0.00 0.00 75 1013.3
20260509051054 55 136 0.0 2.0 0.00 0.00 0.00 75 1013.4
20260509050552 55 0 0.0 3.0 0.00 0.00 0.00 74 1013.4
20260509050058 55 177 1.0 3.0 0.00 0.00 0.00 74 1013.4
20260509045553 55 75 1.0 3.0 0.00 0.00 0.00 73 1013.4
20260509045052 55 160 0.0 3.0 0.00 0.00 0.00 73 1013.4
20260509044559 55 153 1.0 3.0 0.00 0.00 0.00 73 1013.4
20260509044054 55 157 1.0 2.0 0.00 0.00 0.00 73 1013.5
20260509043551 55 153 1.0 2.0 0.00 0.00 0.00 73 1013.5
20260509043055 55 166 1.0 3.0 0.00 0.00 0.00 73 1013.4
20260509042554 55 168 0.0 3.0 0.00 0.00 0.00 73 1013.5
20260509042056 55 162 1.0 3.0 0.00 0.00 0.00 72 1013.5
20260509041617 55 173 1.0 3.0 0.00 0.00 0.00 72 1013.6
20260509041055 55 162 1.0 3.0 0.00 0.00 0.00 72 1013.6
20260509040557 55 160 1.0 3.0 0.00 0.00 0.00 72 1013.7
20260509040056 55 159 1.0 2.0 0.00 0.00 0.00 72 1013.6
20260509035554 56 0 0.0 3.0 0.00 0.00 0.00 71 1013.6
20260509035051 56 153 0.0 3.0 0.00 0.00 0.00 71 1013.6
20260509034553 56 159 1.0 2.0 0.00 0.00 0.00 70 1013.7
20260509034051 56 156 0.0 3.0 0.00 0.00 0.00 69 1013.8
20260509033554 56 158 1.0 3.0 0.00 0.00 0.00 69 1013.9
20260509033054 56 169 1.0 2.0 0.00 0.00 0.00 68 1013.8
20260509032552 56 162 0.0 3.0 0.00 0.00 0.00 68 1013.9
20260509032055 56 134 0.0 3.0 0.00 0.00 0.00 67 1013.8
20260509031554 56 159 0.0 2.0 0.00 0.00 0.00 67 1013.8
20260509031055 57 154 0.0 2.0 0.00 0.00 0.00 68 1013.7
20260509030554 57 159 0.0 2.0 0.00 0.00 0.00 67 1013.7
20260509030056 57 163 1.0 2.0 0.00 0.00 0.00 67 1013.7
20260509025557 57 165 1.0 2.0 0.00 0.00 0.00 66 1013.6
20260509025054 57 0 0.0 2.0 0.00 0.00 0.00 66 1013.6
20260509024552 57 136 0.0 2.0 0.00 0.00 0.00 66 1013.6
20260509024054 57 162 0.0 2.0 0.00 0.00 0.00 66 1013.5
20260509023554 57 152 0.0 2.0 0.00 0.00 0.00 65 1013.5
20260509023109 58 160 0.0 2.0 0.00 0.00 0.00 64 1013.6
20260509022556 58 203 0.0 3.0 0.00 0.00 0.00 64 1013.6
20260509022054 58 162 1.0 3.0 0.00 0.00 0.00 64 1013.7
20260509021554 58 0 0.0 3.0 0.00 0.00 0.00 63 1013.6
20260509021054 58 158 0.0 3.0 0.00 0.00 0.00 63 1013.5
20260509020553 58 160 1.0 3.0 0.00 0.00 0.00 63 1013.6
20260509020101 58 0 0.0 1.0 0.00 0.00 0.00 62 1013.6
20260509015554 58 188 0.0 1.0 0.00 0.00 0.00 62 1013.6
20260509015055 58 0 0.0 1.0 0.00 0.00 0.00 62 1013.6
20260509014557 58 173 0.0 2.0 0.00 0.00 0.00 62 1013.6
20260509014054 58 0 0.0 2.0 0.00 0.00 0.00 61 1013.5
20260509013554 58 176 0.0 1.0 0.00 0.00 0.00 61 1013.4
20260509013102 59 167 0.0 1.0 0.00 0.00 0.00 61 1013.5
20260509012554 59 167 0.0 1.0 0.00 0.00 0.00 61 1013.4
20260509012056 59 158 0.0 1.0 0.00 0.00 0.00 59 1013.4
20260509011601 59 0 0.0 2.0 0.00 0.00 0.00 59 1013.3
20260509011054 59 0 0.0 2.0 0.00 0.00 0.00 58 1013.2
20260509010552 59 163 0.0 1.0 0.00 0.00 0.00 59 1013.3
20260509010056 59 147 0.0 1.0 0.00 0.00 0.00 58 1013.2
20260509005552 60 164 0.0 1.0 0.00 0.00 0.00 59 1013.1
20260509005054 60 238 0.0 1.0 0.00 0.00 0.00 58 1013.0
20260509004558 60 0 0.0 1.0 0.00 0.00 0.00 58 1012.9
20260509004055 60 238 0.0 1.0 0.00 0.00 0.00 56 1013.0
20260509003555 60 158 0.0 1.0 0.00 0.00 0.00 56 1012.9
20260509003054 61 0 0.0 1.0 0.00 0.00 0.00 57 1012.9
20260509002558 61 0 0.0 1.0 0.00 0.00 0.00 56 1012.9
20260509002054 61 0 0.0 2.0 0.00 0.00 0.00 56 1012.9
20260509001558 62 0 0.0 2.0 0.00 0.00 0.00 55 1012.8
20260509001055 62 181 0.0 1.0 0.00 0.00 0.00 57 1012.7
20260509000557 62 0 0.0 4.0 0.00 0.00 0.00 55 1012.8
20260509000111 62 182 0.0 4.0 0.00 0.00 0.00 55 1012.5
20260508235554 62 167 0.0 2.0 0.00 0.00 0.00 53 1012.6
20260508235054 62 137 0.0 2.0 0.00 0.00 0.00 54 1012.7
20260508234555 63 0 0.0 1.0 0.00 0.00 0.00 56 1012.7
20260508234058 63 0 0.0 1.0 0.00 0.00 0.00 54 1012.6
20260508233554 63 0 0.0 1.0 0.00 0.00 0.00 54 1012.5
20260508233117 64 0 0.0 2.0 0.00 0.00 0.00 55 1012.4
20260508232553 64 136 0.0 2.0 0.00 0.00 0.00 53 1012.4
20260508232054 64 209 0.0 3.0 0.00 0.00 0.00 53 1012.3
20260508231559 65 0 0.0 3.0 0.00 0.00 0.00 53 1012.2
20260508231054 65 0 0.0 3.0 0.00 0.00 0.00 52 1012.2
20260508230554 65 188 0.0 3.0 0.00 0.00 0.00 51 1012.2
20260508230053 65 143 1.0 3.0 0.00 0.00 0.00 51 1012.1
20260508225553 65 0 0.0 3.0 0.00 0.00 0.00 52 1012.1
20260508225055 66 0 0.0 3.0 0.00 0.00 0.00 51 1012.1
20260508224623 66 150 1.0 2.0 0.00 0.00 0.00 51 1012.1
20260508224054 66 0 0.0 2.0 0.00 0.00 0.00 50 1012.1
20260508223558 66 284 0.0 2.0 0.00 0.00 0.00 49 1012.0
20260508223055 66 359 0.0 4.0 0.00 0.00 0.00 50 1012.1
20260508222554 67 168 1.0 4.0 0.00 0.00 0.00 49 1012.1
20260508222053 67 314 0.0 2.0 0.00 0.00 0.00 49 1012.1
20260508221554 67 319 0.0 2.0 0.00 0.00 0.00 50 1012.1
20260508221054 67 267 0.0 2.0 0.00 0.00 0.00 50 1011.9
20260508220554 67 256 0.0 2.0 0.00 0.00 0.00 48 1011.9
20260508220056 67 0 1.0 3.0 0.00 0.00 0.00 49 1012.0
20260508215553 67 217 0.0 5.0 0.00 0.00 0.00 50 1012.0
20260508215056 67 176 1.0 7.0 0.00 0.00 0.00 47 1011.9
20260508214552 67 68 0.0 7.0 0.00 0.00 0.00 47 1012.0
20260508214053 67 315 1.0 6.0 0.00 0.00 0.00 48 1012.0
20260508213553 67 60 1.0 4.0 0.00 0.00 0.00 47 1012.0
20260508213057 67 48 1.0 5.0 0.00 0.00 0.00 46 1011.8
20260508212553 67 248 1.0 5.0 0.00 0.00 0.00 46 1011.9
20260508212053 68 322 1.0 4.0 0.00 0.00 0.00 47 1011.9
20260508211555 67 321 1.0 4.0 0.00 0.00 0.00 47 1011.9
20260508211056 67 10 1.0 4.0 0.00 0.00 0.00 46 1011.9
20260508210554 67 313 1.0 4.0 0.00 0.00 0.00 45 1012.0
20260508210055 68 311 2.0 4.0 0.00 0.00 0.00 47 1012.0
20260508205553 68 285 1.0 3.0 0.00 0.00 0.00 47 1012.0
20260508205054 68 255 1.0 4.0 0.00 0.00 0.00 45 1012.0
20260508204558 68 164 1.0 4.0 0.00 0.00 0.00 45 1012.0
20260508204054 68 72 1.0 6.0 0.00 0.00 0.00 44 1012.0
20260508203557 67 20 1.0 6.0 0.00 0.00 0.00 45 1012.1
20260508203058 67 320 1.0 9.0 0.00 0.00 0.00 45 1012.1
20260508202554 67 312 3.0 9.0 0.00 0.00 0.00 43 1012.1
20260508202054 67 318 2.0 5.0 0.00 0.00 0.00 44 1012.3
20260508201558 67 327 1.0 8.0 0.00 0.00 0.00 47 1012.3
20260508201054 67 302 4.0 8.0 0.00 0.00 0.00 44 1012.3
20260508200552 67 319 3.0 7.0 0.00 0.00 0.00 45 1012.3
20260508200111 67 295 1.0 7.0 0.00 0.00 0.00 43 1012.3
20260508195554 67 205 3.0 6.0 0.00 0.00 0.00 44 1012.5
20260508195053 67 316 1.0 6.0 0.00 0.00 0.00 42 1012.5
20260508194558 67 176 0.0 7.0 0.00 0.00 0.00 43 1012.5
20260508194051 66 260 3.0 7.0 0.00 0.00 0.00 44 1012.7
20260508193556 66 309 2.0 11.0 0.00 0.00 0.00 43 1012.7
20260508193132 66 356 2.0 11.0 0.00 0.00 0.00 46 1012.7
20260508192555 66 313 4.0 11.0 0.00 0.00 0.00 41 1012.8
20260508192055 66 322 1.0 6.0 0.00 0.00 0.00 42 1012.7
20260508191559 66 319 3.0 9.0 0.00 0.00 0.00 41 1012.9
20260508191053 67 307 3.0 9.0 0.00 0.00 0.00 43 1012.9
20260508190554 67 322 3.0 7.0 0.00 0.00 0.00 42 1013.0
20260508190056 66 0 3.0 6.0 0.00 0.00 0.00 43 1013.1
20260508185554 66 305 3.0 6.0 0.00 0.00 0.00 42 1013.0
20260508185054 66 309 2.0 6.0 0.00 0.00 0.00 42 1013.1
20260508184606 66 316 2.0 5.0 0.00 0.00 0.00 45 1013.2
20260508184053 66 314 1.0 4.0 0.00 0.00 0.00 43 1013.2
20260508183553 66 210 1.0 4.0 0.00 0.00 0.00 44 1013.3
20260508183124 65 330 0.0 8.0 0.00 0.00 0.00 41 1013.2
20260508182553 66 312 2.0 9.0 0.00 0.00 0.00 41 1013.3
20260508182052 65 328 5.0 9.0 0.00 0.00 0.00 42 1013.3
20260508181605 65 318 2.0 8.0 0.00 0.00 0.00 40 1013.4
20260508181053 65 318 3.0 10.0 0.00 0.00 0.00 41 1013.5
20260508180553 65 316 2.0 10.0 0.00 0.00 0.00 43 1013.3
20260508180057 65 274 3.0 7.0 0.00 0.00 0.00 41 1013.5
20260508175554 65 21 1.0 5.0 0.00 0.00 0.00 42 1013.5
20260508175055 65 318 2.0 5.0 0.00 0.00 0.00 40 1013.6
20260508174603 65 269 2.0 6.0 0.00 0.00 0.00 43 1013.7
20260508174054 65 315 2.0 10.0 0.00 0.00 0.00 44 1013.7
20260508173554 65 248 4.0 10.0 0.00 0.00 0.00 44 1013.7
20260508173054 64 309 3.0 9.0 0.00 0.00 0.00 44 1013.7
20260508172553 64 325 3.0 8.0 0.00 0.00 0.00 42 1013.6
20260508172055 64 300 2.0 8.0 0.00 0.00 0.00 44 1013.8
20260508171556 64 271 4.0 8.0 0.00 0.00 0.00 46 1013.8
20260508171056 64 313 2.0 6.0 0.00 0.00 0.00 42 1013.9
20260508170553 64 226 2.0 8.0 0.00 0.00 0.00 44 1013.9
20260508170058 64 257 3.0 8.0 0.00 0.00 0.00 46 1014.0
20260508165553 64 318 2.0 8.0 0.00 0.00 0.00 45 1014.1
20260508165053 64 250 3.0 8.0 0.00 0.00 0.00 43 1014.0
20260508164559 64 226 1.0 11.0 0.00 0.00 0.00 46 1014.1
20260508164053 63 311 2.0 11.0 0.00 0.00 0.00 42 1014.2
20260508163554 63 301 2.0 8.0 0.00 0.00 0.00 41 1014.2
20260508163054 63 321 2.0 8.0 0.00 0.00 0.00 44 1014.1
20260508162553 63 312 2.0 6.0 0.00 0.00 0.00 43 1014.2
20260508162055 63 207 3.0 6.0 0.00 0.00 0.00 47 1014.3
20260508161554 63 332 1.0 4.0 0.00 0.00 0.00 45 1014.3
20260508161053 63 320 2.0 7.0 0.00 0.00 0.00 46 1014.4
20260508160554 63 281 1.0 7.0 0.00 0.00 0.00 48 1014.5
20260508160054 63 311 3.0 8.0 0.00 0.00 0.00 45 1014.5
20260508155556 63 321 1.0 8.0 0.00 0.00 0.00 45 1014.5
20260508155055 62 335 3.0 8.0 0.00 0.00 0.00 43 1014.6
20260508154615 62 312 2.0 8.0 0.00 0.00 0.00 44 1014.7
20260508154051 62 321 1.0 8.0 0.00 0.00 0.00 45 1014.8
20260508153556 63 314 0.0 5.0 0.00 0.00 0.00 45 1014.9
20260508153057 62 308 2.0 7.0 0.00 0.00 0.00 44 1014.9
20260508152554 62 200 2.0 7.0 0.00 0.00 0.00 47 1014.9
20260508152055 62 314 3.0 7.0 0.00 0.00 0.00 45 1014.9
20260508151554 62 285 1.0 6.0 0.00 0.00 0.00 48 1014.9
20260508151051 61 0 2.0 7.0 0.00 0.00 0.00 49 1014.9
20260508150557 61 320 3.0 7.0 0.00 0.00 0.00 47 1015.1
20260508150056 62 310 1.0 3.0 0.00 0.00 0.00 48 1015.1
20260508145552 62 335 1.0 3.0 0.00 0.00 0.00 49 1015.0
20260508145052 61 314 1.0 3.0 0.00 0.00 0.00 50 1015.0
20260508144608 61 319 2.0 3.0 0.00 0.00 0.00 47 1015.0
20260508144057 62 337 0.0 2.0 0.00 0.00 0.00 50 1015.0
20260508143552 61 337 1.0 3.0 0.00 0.00 0.00 51 1015.0
20260508143105 60 112 1.0 3.0 0.00 0.00 0.00 50 1015.2
20260508142551 60 313 1.0 2.0 0.00 0.00 0.00 56 1015.2
20260508142055 60 359 0.0 3.0 0.00 0.00 0.00 52 1015.3
20260508141604 59 61 1.0 4.0 0.00 0.00 0.00 55 1015.4
20260508141056 59 62 2.0 4.0 0.00 0.00 0.00 55 1015.4
20260508140554 59 58 1.0 3.0 0.00 0.00 0.00 53 1015.5
20260508140057 59 7 2.0 3.0 0.00 0.00 0.00 51 1015.5
20260508135556 58 307 0.0 3.0 0.00 0.00 0.00 56 1015.5
20260508135053 58 323 2.0 3.0 0.00 0.00 0.00 54 1015.4
20260508134621 58 314 1.0 3.0 0.00 0.00 0.00 58 1015.5
20260508134053 57 0 1.0 3.0 0.00 0.00 0.00 57 1015.6
20260508133552 58 49 1.0 2.0 0.00 0.00 0.00 57 1015.7
20260508133105 57 288 0.0 3.0 0.00 0.00 0.00 60 1015.7
20260508132554 56 0 0.0 3.0 0.00 0.00 0.00 58 1015.7
20260508132056 56 317 1.0 3.0 0.00 0.00 0.00 60 1015.8
20260508131556 56 0 1.0 3.0 0.00 0.00 0.00 62 1015.7
20260508131055 55 67 1.0 3.0 0.00 0.00 0.00 60 1015.7
20260508130554 55 323 1.0 2.0 0.00 0.00 0.00 62 1015.7
20260508130058 55 60 1.0 2.0 0.00 0.00 0.00 64 1015.7
20260508125553 54 335 1.0 2.0 0.00 0.00 0.00 65 1015.7
20260508125055 54 0 1.0 2.0 0.00 0.00 0.00 66 1015.6
20260508124607 54 45 1.0 2.0 0.00 0.00 0.00 67 1015.6
20260508124052 54 14 0.0 2.0 0.00 0.00 0.00 67 1015.6
20260508123552 53 314 0.0 2.0 0.00 0.00 0.00 71 1015.5
20260508123101 53 314 1.0 2.0 0.00 0.00 0.00 71 1015.5
20260508122554 53 0 0.0 1.0 0.00 0.00 0.00 73 1015.4
20260508122052 53 41 0.0 2.0 0.00 0.00 0.00 74 1015.4
20260508121557 52 44 0.0 2.0 0.00 0.00 0.00 76 1015.3